{"data":{"norad_id":59844,"intl_designator":"2024-097K","name":"STARLINK-31851","alt_names":[],"object_type":"PAYLOAD","status":"ACTIVE","operator":null,"country":"US","launch_date":"2024-05-23","launch_site_code":"AFETR","launch_vehicle":null,"mission":null,"orbit_class":"UNKNOWN","rcs_meters":null,"size_class":null,"mass_kg":null,"dimensions":null,"purposes":["comms"],"wikipedia_slug":null,"has_3d_model":false,"image_url":null,"decayed_at":null,"tle_current":{"epoch":"2026-09-21T08:35:09.938688Z","epoch_age_seconds":100379,"freshness":"FRESH","line1":"1 59844U 24097K   26264.35775392  .00000438  00000+0  25448-4 0  9994","line2":"2 59844  43.0029 249.1672 0001301 267.1443  92.9260 15.27579110131846","mean_motion":15.2757911,"eccentricity":0.0001301,"inclination_deg":43.0029,"raan_deg":249.1672,"arg_perigee_deg":267.1443,"mean_anomaly_deg":92.926,"bstar":2.5448e-5,"rev_number":13184,"period_min":94.26680363546,"perigee_km":482.15912036331,"apogee_km":483.94440167893,"semimajor_km":6861.1887610211,"source":"CELESTRAK","updated_at":"2026-09-22T09:00:49.096932Z"}}}